Погода в Туркменбаши

Погода в Туркменбаши : погода сейчас, прогноз погоды и архив. Всё, что Вы хотите узнать о погоде в Туркменбаши!

Поиск расширенной информации на нашем сайте:

Полезная информация: Видеоэндоскопы mitcorp видеоэндоскоп.

Другие новости

Новости СМИ2

Главная страница сайта

Новости сайта

02.10.2013

Напоминаем, что на нашем новом сайте вы можете получить высокодетализированные прогнозы погоды по пунктам России, СНГ и мира (включающие важные для авиации метеовеличины, такие как направление и скорость ветра, видимость, явления погоды, количество и форма облачности, нижняя и верхняя граница облачности), а также ознакомиться с разнообразными материалами по авиационной метеорологии и подборкой полезных ссылок на эту тему.

Сайт Метеоцентр.Азия посвящён разработке технологий оптимизации авиаметеорологического обслуживания, включая проектирование и перспективное создание нескольких автоматизированных авиаметеорологических систем:
- система выпуска высокодетальных прогностических карт явлений погоды для нижнего воздушного пространства по России и ближнему зарубежью;
- система верификации прогнозов TAF (выпускаемых синоптиками официальных АМСГ РФ и ближнего зарубежья) и AUTOTAF (выпускаемых сайтом Метеоцентр.Азия) - выявление ошибок, онлайн-сопоставление с фактической погодой METAR, автоматическое внесение коррективов в прогнозы при резком отклонении фактической погоды от прогноза, подсчёт оправдываемости прогнозов по элементам и в целом;
- система обработки, анализа и отображения авиаметеорологической информации для применения провайдерами метеорологической информации.

Рекомендуем: Рентгеновская пленка fomadux купить пленка рентгеновская купить в москве.

Погода в Туркменбаши - сегодня

Время (UTC), дата Ветер
(°,м/с) 
Видим.   Явления Облачность Т
(°С)
Тd
(°С)
f(%) Тe
(°С)
Pmin
(гПа)
dP
(гПа)
Po
(мм)
O2
(г/м3)
Тmin Tmax R s Состояние
почвы
06 24.05.17 320 (СЗ) 20000 м  {туман}  ясно 
+20.7 +15.1 70 +30  1010.4  0.1  751  278  +14         
09 24.05.17 300 (СЗ) 20000 м    5/0 средняя, верхняя 
[Ac trans|Ci fib]
+21.2 +14.6 66 +29  1011.3  0.9  751  278           
12 24.05.17 300 (СЗ) 20000 м    3/0 верхняя 
[Ci fib]
+25.8 +15.2 52 +35  1009  -2.2  750  273           
15 24.05.17 330 (СЗ) 20000 м    3/0 верхняя 
[Ci fib]
+24.2 +13.8 52 +31  1008.7  -0.3  749  275    +28.5       
18 24.05.17 050 (СВ) 4000 м    8/0 средняя 
[Ac trans]
+17.8 +13.2 74 +24  1010.5  1.6  751  281    +28.5       
21 24.05.17 320 (СЗ) 4000 м    3/0 средняя 
[Ac trans]
+17 +13 77 +22  1012.4  1.8  752  283           
00 25.05.17 330 (СЗ) 4000 м    3/0 средняя 
[Ac trans]
+15 +13.7 92 +21  1012.4  752  284           
03 25.05.17 310 (СЗ) 20000 м    ясно 
+16.3 +14.6 90 +24  1013.8  1.4  753  283           
06 25.05.17 320 (СЗ) 20000 м    ясно 
+19.6 +13.7 69 +26  1014.8  1.1  754  281  +14.4         
09 25.05.17 330 (СЗ) 20000 м    ясно 
+23.6 +11.1 45 +26  1015  0.3  754  278           
12 25.05.17 310 (СЗ) 20000 м    ясно 
+22.6 +12.2 52 +27  1015.2  0.2  754  278           
15 25.05.17 310 (СЗ) 20000 м    ясно 
+20.8 +11 53 +23  1015.6  0.4  754  280    +24       
18 25.05.17 310 (СЗ) 4000 м    ясно 
+15.8 +13.5 86 +22  1017.2  1.4  755  285    +24       
21 25.05.17 340 (С) 2000 м  дымка  10/10 30 м 
[St]
+14.6 +14.2 97 +23  1017.6  0.3  756  286           
00 26.05.17 320 (СЗ) 4000 м    10/10 30 м 
[St]
+14.4 +14 97 +22  1017.6  756  286           
03 26.05.17 330 (СЗ) 20000 м    8/8 150 м 
[St]
+14.7 +14.2 97 +22  1017.8  0.2  756  286           
06 26.05.17 300 (СЗ) 20000 м    ясно 
+21.7 +13 58 +27  1018.1  0.5  756  280  +14         
09 26.05.17 310 (СЗ) 20000 м    ясно 
+24.4 +12 46 +28  1017.1  -0.9  756  277           
12 26.05.17 310 (СЗ) 20000 м    4/0 верхняя 
[Ci fib]
+23.8 +12.3 49 +28  1016.2  -0.9  755  277           
15 26.05.17 320 (СЗ) 20000 м    ясно 
+21.8 +8.9 44 +22  1015.3  -0.9  754  280    +24.7       
18 26.05.17 320 (СЗ) 4000 м    ясно 
+16.2 +12.9 81 +22  1015.7  0.2  754  284    +24.7       
21 26.05.17 350 (С) 4000 м    ясно 
+14.1 +12.3 89 +19  1015.1  -0.7  754  286           
00 27.05.17 350 (С) 4000 м    ясно 
+13.6 +12.5 93 +19  1014.5  -0.6  753  287           
03 27.05.17 тихо ()   20000 м    ясно 
+15.8 +12.2 79 +20  1014.3  -0.1  753  285           
06 27.05.17 330 (СЗ) 20000 м    3/0 верхняя 
[Ci fib]
+24.5 +7.1 33 +25  1014  -0.1  753  277  +13.1         
Время (UTC), дата Ветер
(°,м/с) 
Видим.   Явления Облачность Т
(°С)
Тd
(°С)
f(%) Тe
(°С)
Pmin
(гПа)
dP
(гПа)
Po
(мм)
O2
(г/м3)
Тmin Tmax R s Состояние
почвы

Для получения пояснительной информации подведите курсор к названию столбца.

ПОГОДА в Туркменбаши - архив

Всё, что Вы хотите узнать о погоде в Туркменбаши - удобно и подробно!

Выберите нужную дату (начиная с 1 января 2015* года) и нажмите кнопку "Найти".
Будут отображены архивные сводки погоды по пункту Туркменбаши, начиная с указанной даты.


Отображать данные в формате CSV (для использования в таблицах Excel)


Внимание! Наш архив погоды предназначен исключительно для личного некоммерческого использования в познавательных целях. Если Вам необходимы официальные справки о состоянии погоды (для производственных, юридических, коммерческих и т.п. целей), обращайтесь в органы Росгидромета.

*Примечание: данная дата относится к архиву по метеостанциям СССР (Россия, СНГ, Балтия).
Архив по метеостанциям Зарубежной Европы и Азии (кроме Китая) хранится 10 дней, по другим регионам земного шара (Китай, Африка, Америка, Австралия, Океания) - 1 день.

Туркменбаши - район местоположения метеостанции


Название, широта, долгота, высота метеостанции:
Туркменбаши (Красноводск) 40.1°ш. 53°д. -13 м над ур. моря [Туркменистан]

Дополнительная информация

В oтличие oт бoльшинства пoгoдных сайтoв мы публикуем пoдрoбную метеoинфoрмацию в детальнoм прoфессиoнальнoм фoрмате.

Характеристики температуры и влажнoсти вoздуха измеряются на высoте 2 м в тени вдали oт зданий и деревьев.
Скoрoсть ветра измеряется на высoте 10 м (на урoвне рoста челoвека скoрoсть ветра ниже в 1.5-2 раза). Если метеoстанция нахoдится в гoрoде или в лесу, тo скoрoсть ветра занижена на 2-4 м/с пo сравнению с oткрытым местoм. Скoрoсть ветра над акватoриями крупных рек и oзёр, а также на вершинах хoлмoв на 2-5 м/с выше, чем в oбычных услoвиях.
Атмoсфернoе давление в разных тoчках местнoсти мoжет значительнo oтличаться oт давления на метеoстанции, в зависимoсти oт услoвий рельефа (при пoдъёме на 10 м давление пoнижается примернo на 1 мм рт.ст.).